CAPE
40 35 48 50 48 50 54 37 23 27 20 14 18 18 32 21 18 1 0 4 34 1 1 3 0 0 0 0 0 0 0 3 0 0 0 0 0 0 0 0 0 1 1 0 1 0 0
49 49 48 49 49 52 32 24 30 29 31 22 21 25 16 18 15 6 14 3 44 1 6 0 0 0 0 0 0 0 0 0 0 0 0 0 0 0 0 0 0 0 0 0 0 0 1
31 38 44 43 48 27 35 24 35 37 37 36 32 29 8 11 13 6 3 4 2 1 2 6 0 0 0 0 0 0 0 0 0 0 0 0 1 1 0 0 0 1 0 0 0 0 0
10 22 26 33 20 54 33 27 35 35 51 44 34 26 16 8 7 1 5 18 2 3 13 13 0 2 0 0 0 0 0 0 0 0 0 0 0 1 2 5 0 0 0 0 0 0 0
5 5 27 30 33 23 14 19 29 27 54 47 42 36 17 13 3 11 58 13 1 1 0 3 3 3 0 0 0 0 0 0 0 0 1 4 12 4 5 5 1 2 0 0 0 0 3
17 8 26 25 41 29 11 26 27 33 50 63 52 35 17 16 5 0 63 23 12 0 14 16 1 0 0 0 0 0 0 0 0 2 1 9 7 4 11 7 0 0 1 0 0 0 1
25 8 10 32 19 28 10 17 35 58 56 69 76 59 21 13 16 4 2 1 0 0 13 0 0 0 0 0 0 0 0 0 1 0 1 12 3 0 1 0 0 0 0 0 0 0 1
21 22 9 27 28 28 37 73 73 82 96 92 106 102 48 15 26 1 19 0 0 0 3 0 0 0 0 0 0 1 0 0 5 0 0 7 4 0 0 2 7 9 3 0 2 0 14
24 34 9 31 35 73 71 56 14 157 125 156 155 172 89 45 2 26 7 0 0 0 1 0 0 0 0 0 1 3 0 1 0 0 0 3 0 3 1 1 0 0 0 2 0 0 4
46 35 14 41 87 34 38 116 15 78 120 145 159 179 151 134 1 12 1 12 0 2 0 0 2 0 0 0 2 12 0 0 0 0 6 4 0 0 0 1 1 0 0 1 0 0 0
33 16 21 47 43 105 121 114 72 44 42 60 88 119 138 126 18 1 0 0 0 1 0 0 2 0 0 5 3 7 0 0 0 5 1 0 0 3 4 4 2 0 4 0 2 7 0
12 15 23 22 56 57 66 48 35 37 32 34 16 0 41 8 23 1 0 0 0 0 0 0 0 1 5 5 5 6 2 0 0 2 0 0 0 2 2 1 3 1 4 2 1 0 2
7 11 20 17 38 46 35 39 37 33 25 21 19 8 6 18 22 3 0 0 0 0 0 0 1 6 6 2 0 0 0 0 0 0 0 0 2 0 1 1 3 2 1 0 0 0 0
8 12 15 24 29 42 40 30 37 38 30 23 45 7 15 20 30 3 2 0 0 0 0 0 4 9 1 0 0 4 0 0 1 1 0 0 0 0 1 0 3 0 0 0 0 0 0
8 16 12 18 34 32 23 24 2 3 28 26 15 11 5 18 16 5 0 0 0 0 0 0 10 1 2 0 0 0 0 6 3 4 0 1 0 1 0 0 0 0 0 0 2 0 0
13 19 14 17 24 19 44 83 48 17 15 4 2 8 13 18 15 1 0 0 0 0 0 2 0 0 0 0 0 0 1 0 0 4 0 1 0 0 0 0 1 0 0 0 0 0 0
13 11 16 20 27 10 15 43 46 21 13 4 1 2 2 16 4 2 0 0 0 0 0 0 0 0 1 2 1 6 0 0 0 1 0 0 0 1 4 0 0 0 0 0 0 0 0
17 10 14 12 32 1 7 18 39 42 4 0 0 1 14 2 2 0 0 11 1 0 0 0 0 2 0 0 0 3 0 0 0 0 0 0 0 0 0 0 0 0 0 0 0 0 0
13 27 19 25 32 11 6 2 12 17 0 0 0 1 0 0 3 1 1 10 17 1 0 0 0 0 0 0 0 2 0 0 0 0 0 0 0 1 0 0 0 0 0 0 0 0 0
17 22 17 29 12 11 1 1 8 0 0 0 0 0 0 1 0 2 0 0 0 0 0 0 0 0 0 1 0 2 0 0 0 0 0 0 0 0 0 0 0 0 0 0 0 0 0
6 19 8 31 13 0 0 0 0 1 0 0 0 1 0 0 0 2 0 3 0 0 0 0 0 0 0 2 1 0 0 0 0 0 0 0 0 0 0 0 0 0 0 0 0 0 0
2 14 14 12 12 3 0 0 0 0 0 0 0 0 0 0 0 0 0 0 0 0 0 0 0 0 0 0 0 0 0 0 0 0 0 0 0 0 0 0 0 0 0 0 0 0 0
2 11 13 4 6 3 1 0 0 0 0 0 0 0 0 0 0 0 0 0 0 0 0 0 0 0 0 0 0 0 0 0 0 0 0 0 0 0 0 0 0 0 0 0 0 0 0
6 12 10 8 2 3 0 0 0 0 0 0 0 0 0 0 0 0 0 0 0 0 0 0 0 0 0 0 0 0 0 0 0 0 0 0 0 0 0 0 0 0 0 0 0 0 0
8 4 6 5 2 5 0 0 0 0 0 0 0 0 0 0 0 0 0 0 0 0 0 0 0 0 0 0 0 0 0 0 0 0 0 0 0 0 0 0 0 0 0 0 0 0 0
5 1 2 1 1 3 0 0 0 0 0 0 0 0 0 0 0 0 0 0 0 0 0 0 0 0 0 0 0 0 0 0 0 0 0 0 0 0 0 0 0 0 0 0 0 0 0
2 0 0 0 5 1 0 0 0 0 0 0 0 0 0 0 0 0 0 0 0 0 0 0 0 0 0 0 0 0 0 0 0 0 0 0 0 0 0 0 0 0 0 0 0 0 0
3 1 0 0 0 0 0 0 0 0 0 0 0 0 0 0 0 0 0 0 0 0 0 0 0 0 0 0 0 0 0 0 0 0 0 0 0 0 0 0 0 0 0 0 0 0 0
0 1 0 0 0 1 0 0 0 0 0 0 0 0 0 0 0 0 0 0 0 0 0 0 0 0 0 0 0 0 0 0 0 0 0 0 0 0 0 0 0 0 0 0 0 0 0
CIN
-1 -0 -0 -0 -0 -1 -0 -1 -1 -0 -0 -1 -0 -0 -0 -0 -0 -5 -1 -0 -2 -0 -0 -0 -0 -0 -0 -0 -0 -0 -0 -0 -0 -0 -0 -0 -0 -0 -0 -0 -0 -1 -1 -0 -1 -0 -0
-1 -0 -0 -0 -1 -0 -0 -1 -0 -0 -1 -0 -0 -0 -0 -0 -0 -0 -0 -0 -3 -0 -0 -0 -0 -0 -0 -0 -0 -0 -0 -0 -0 -0 -0 -0 -0 -0 -1 -0 -0 -0 -0 -0 -0 -2 -1
-0 -0 -1 -0 -0 -1 -0 -0 -0 -0 -0 -0 -0 -0 -1 -0 -0 -0 -0 -29 -0 -0 -0 -0 -0 -0 -0 -0 -0 -0 -0 -0 -0 -0 -0 -0 -0 -1 -0 -0 -0 -0 -0 -0 -0 -0 -0
-0 -1 -1 -0 -1 -1 -1 -1 -0 -0 -0 -0 -0 -0 -0 -0 -0 -0 -32 -24 -0 -0 -0 -0 -0 -1 -0 -0 -0 -0 -0 -0 -0 -0 -0 -0 -0 -1 -1 -2 -0 -0 -0 -0 -0 -0 -0
-0 -1 -1 -0 -1 -1 -1 -1 -0 -0 -0 -0 -0 -0 -0 -0 -0 -2 -9 -18 -0 -0 -0 -0 -1 -0 -0 -0 -0 -0 -0 -0 -0 -0 -1 -1 -1 -0 -1 -1 -1 -5 -0 -0 -0 -0 -2
-1 -1 -1 -0 -0 -0 -1 -1 -0 -0 -0 -0 -3 -4 -1 -3 -10 -0 -0 -0 -0 -0 -0 -0 -1 -0 -0 -0 -0 -0 -0 -0 -0 -1 -1 -3 -0 -0 -2 -1 -0 -0 -1 -0 -0 -0 -1
-1 -0 -1 -1 -1 -1 -1 -0 -0 -0 -0 -0 -0 -4 -10 -24 -11 -0 -0 -6 -0 -0 -0 -0 -0 -0 -0 -0 -0 -0 -0 -0 -0 -4 -0 -2 -0 -0 -5 -0 -0 -0 -0 -0 -0 -0 -4
-0 -1 -0 -0 -1 -1 -1 -0 -1 -0 -0 -0 -0 -0 -2 -36 -4 -16 -1 -0 -0 -0 -0 -0 -0 -0 -0 -0 -0 -0 -0 -0 -0 -0 -1 -1 -0 -0 -0 -5 -0 -0 -4 -0 -5 -0 -0
-1 -1 -0 -1 -1 -0 -0 -1 -0 -0 -0 -0 -0 -0 -0 -8 -7 -1 -4 -0 -0 -0 -0 -0 -0 -0 -0 -0 -0 -3 -0 -1 -0 -0 -0 -1 -0 -1 -3 -0 -0 -0 -0 -1 -0 -0 -23
-1 -1 -1 -0 -0 -5 -2 -5 -6 -0 -0 -0 -2 -0 -0 -1 -3 -1 -3 -1 -0 -13 -0 -0 -0 -0 -0 -0 -0 -1 -0 -0 -0 -0 -1 -1 -2 -0 -0 -0 -0 -0 -0 -0 -0 -0 -0
-1 -1 -1 -0 -0 -0 -0 -0 -0 -0 -0 -2 -1 -1 -0 -1 -5 -5 -2 -0 -0 -4 -0 -0 -1 -0 -0 -0 -11 -0 -1 -0 -0 -0 -0 -0 -0 -0 -0 -1 -0 -0 -0 -0 -2 -1 -0
-1 -1 -4 -1 -0 -0 -0 -0 -0 -0 -0 -0 -3 -0 -4 -8 -8 -4 -0 -0 -0 -0 -0 -0 -0 -1 -0 -0 -0 -1 -0 -0 -0 -1 -4 -0 -0 -0 -0 -4 -0 -0 -0 -0 -0 -0 -2
-0 -1 -0 -0 -0 -0 -0 -0 -0 -0 -1 -1 -1 -4 -2 -5 -1 -17 -0 -0 -0 -0 -0 -0 -0 -0 -1 -0 -1 -0 -0 -0 -2 -0 -0 -1 -0 -0 -0 -0 -2 -1 -2 -0 -0 -0 -0
-1 -0 -0 -0 -1 -0 -0 -0 -0 -0 -0 -0 -0 -2 -0 -4 -3 -27 -1 -0 -0 -0 -0 -0 -1 -0 -0 -0 -1 -8 -0 -0 -9 -0 -0 -0 -0 -0 -0 -0 -0 -0 -0 -0 -0 -0 -0
-0 -0 -1 -0 -0 -0 -0 -13 -13 -2 -0 -3 -0 -0 -0 -5 -4 -3 -0 -0 -0 -0 -0 -3 -0 -0 -0 -0 -5 -0 -0 -1 -5 -0 -0 -0 -3 -5 -1 -1 -0 -0 -0 -0 -2 -0 -0
-1 -1 -0 -0 -0 -3 -0 -2 -0 -4 -0 -1 -3 -0 -0 -5 -2 -3 -0 -0 -0 -0 -0 -16 -0 -1 -0 -0 -0 -0 -0 -0 -0 -0 -0 -0 -0 -0 -0 -1 -5 -0 -0 -0 -0 -0 -0
-0 -0 -0 -0 -0 -0 -0 -0 -0 -21 -6 -8 -11 -1 -5 -3 -1 -1 -0 -0 -0 -0 -0 -0 -0 -0 -1 -3 -4 -2 -0 -0 -4 -0 -0 -0 -0 -3 -2 -3 -0 -0 -0 -0 -0 -0 -0
-0 -0 -1 -0 -0 -0 -5 -0 -0 -7 -33 -0 -0 -2 -1 -4 -2 -0 -0 -2 -0 -0 -0 -0 -0 -7 -0 -0 -0 -0 -0 -0 -0 -0 -1 -0 -0 -0 -0 -0 -0 -0 -0 -0 -0 -0 -0
-0 -0 -0 -0 -0 -0 -9 -23 -12 -3 -1 -0 -0 -2 -2 -1 -0 -0 -10 -3 -3 -0 -0 -0 -0 -0 -0 -1 -0 -4 -0 -0 -0 -0 -0 -0 -0 -6 -0 -0 -0 -0 -0 -0 -0 -0 -0
-0 -0 -0 -0 -0 -0 -0 -12 -29 -0 -10 -0 -0 -0 -0 -0 -0 -9 -3 -1 -0 -0 -0 -0 -0 -0 -1 -3 -0 -1 -0 -0 -0 -0 -0 -0 -0 -0 -0 -0 -0 -0 -0 -0 -0 -0 -0
-0 -0 -0 -0 -0 -0 -0 -0 -1 -44 -0 -0 -0 -0 -0 -8 -3 -6 -4 -3 -0 -0 -0 -0 -0 -1 -1 -0 -1 -0 -0 -0 -0 -0 -0 -0 -0 -0 -0 -0 -0 -0 -0 -0 -0 -0 -0
-2 -0 -0 -0 -0 -0 -0 -0 -0 -0 -0 -0 -0 -0 -0 -0 -0 -0 -0 -0 -0 -0 -0 -0 -0 -4 -0 -0 -0 -0 -0 -0 -0 -0 -0 -0 -0 -0 -0 -0 -0 -0 -0 -0 -0 -0 -0
-4 -0 -0 -0 -0 -0 -0 -0 -0 -0 -0 -0 -0 -0 -0 -0 -0 -0 -0 -0 -0 -0 -0 -0 -0 -0 -0 -0 -0 -0 -0 -0 -0 -0 -0 -0 -0 -0 -0 -0 -0 -0 -0 -0 -0 -0 -0
-0 -0 -0 -0 -0 -0 -0 -0 -0 -0 -0 -0 -0 -0 -0 -0 -0 -0 -0 -0 -0 -0 -0 -0 -0 -0 -0 -0 -0 -0 -0 -0 -0 -0 -0 -0 -0 -0 -0 -0 -0 -0 -0 -0 -0 -0 -0
-0 -0 -0 -0 -0 -0 -0 -0 -0 -0 -0 -0 -0 -0 -0 -0 -0 -0 -0 -0 -0 -0 -0 -0 -0 -0 -0 -0 -0 -0 -0 -0 -0 -0 -0 -0 -0 -0 -0 -0 -0 -0 -0 -0 -0 -0 -0
-0 -0 -0 -0 -2 -0 -0 -0 -0 -0 -0 -0 -0 -0 -0 -0 -0 -0 -0 -0 -0 -0 -0 -0 -0 -0 -0 -0 -0 -0 -0 -0 -0 -0 -0 -0 -0 -0 -0 -0 -0 -0 -0 -0 -0 -0 -0
-0 -0 -0 -0 -0 -1 -0 -0 -0 -0 -0 -0 -0 -0 -0 -0 -0 -0 -0 -0 -0 -0 -0 -0 -0 -0 -0 -0 -0 -0 -0 -0 -0 -0 -0 -0 -0 -0 -0 -0 -0 -0 -0 -0 -0 -0 -0
-0 -0 -0 -0 -1 -0 -0 -0 -0 -0 -0 -0 -0 -0 -0 -0 -0 -0 -0 -0 -0 -0 -0 -0 -0 -0 -0 -0 -0 -0 -0 -0 -0 -0 -0 -0 -0 -0 -0 -0 -0 -0 -0 -0 -0 -0 -0
-0 -0 -0 -0 -0 -0 -0 -0 -0 -0 -0 -0 -0 -0 -0 -0 -0 -0 -0 -0 -0 -0 -0 -0 -0 -0 -0 -0 -0 -0 -0 -0 -0 -0 -0 -0 -0 -0 -0 -0 -0 -0 -0 -0 -0 -0 -0
Wind_Speed
41 42 42 42 42 43 43 44 42 41 40 39 39 39 38 39 39 41 40 36 26 17 17 14 17 17 19 23 23 10 12 12 13 16 18 20 22 25 32 31 34 38 39 39 39 40 41
43 42 43 42 44 44 44 44 43 42 39 39 39 39 39 39 40 39 39 40 15 14 14 14 15 15 20 25 17 12 12 14 15 16 18 18 20 25 31 34 36 37 41 42 40 42 40
43 43 42 41 43 45 45 45 44 43 39 39 39 39 39 39 40 38 36 33 10 13 13 12 14 14 23 22 16 14 14 15 14 16 19 17 20 24 27 36 29 32 40 40 38 40 44
46 46 44 43 44 44 45 45 43 43 39 38 39 38 38 38 39 41 34 9 8 10 11 12 13 16 24 16 17 14 14 15 16 18 18 21 22 26 28 27 34 37 37 41 35 34 37
46 45 45 45 44 45 46 43 42 41 38 36 36 36 36 36 35 33 9 7 5 6 10 10 14 17 23 14 16 13 12 17 17 16 16 17 18 22 24 28 30 25 32 34 37 30 27
46 48 47 48 44 43 43 40 39 38 37 35 35 35 34 32 31 30 8 3 5 8 10 9 16 18 19 18 11 13 14 16 19 20 21 17 18 20 20 18 26 25 27 30 32 29 31
46 52 48 45 43 40 41 39 38 38 35 32 32 32 32 30 27 20 6 7 12 17 17 16 15 17 8 12 11 14 12 16 17 18 21 13 15 17 15 14 19 25 29 33 34 32 29
45 51 47 45 41 39 39 38 40 36 35 32 31 30 30 29 25 24 18 16 15 17 16 20 16 12 13 12 14 13 12 16 15 18 12 12 13 10 9 19 20 21 26 30 33 28 22
47 48 44 42 39 40 40 39 42 33 32 30 29 29 29 28 25 20 14 18 17 18 18 13 12 13 13 11 15 10 11 14 15 15 12 9 9 6 3 8 10 21 10 25 14 22 3
46 51 43 39 38 43 20 41 26 10 10 14 9 13 26 25 23 19 22 19 17 18 18 16 15 14 9 11 14 11 13 14 14 15 16 9 16 17 17 15 15 16 17 15 14 20 7
50 45 41 35 29 17 23 22 30 32 27 20 6 8 24 20 19 19 18 17 13 17 23 13 9 5 5 9 9 12 12 14 11 15 14 10 14 15 15 17 16 15 15 20 19 22 22
45 38 19 18 17 22 24 21 23 32 27 10 1 8 23 22 23 19 16 15 13 18 24 15 9 7 4 7 9 11 13 16 16 15 14 15 12 15 16 17 14 20 16 17 19 23 21
20 15 15 16 17 18 20 26 19 21 27 13 7 16 25 22 20 15 14 18 21 21 16 15 12 4 4 6 10 11 9 17 14 13 12 12 15 14 16 16 18 18 14 16 18 16 17
14 14 16 17 18 19 22 24 21 12 14 25 21 30 30 25 16 21 21 20 23 16 14 15 3 1 5 8 11 11 17 15 18 16 13 12 15 15 15 16 12 15 14 13 11 16 17
13 14 16 17 20 22 22 39 39 32 17 11 29 35 28 27 19 23 24 27 17 18 17 13 3 5 7 10 9 19 19 17 16 14 15 13 15 14 17 13 12 13 10 13 14 21 10
12 13 15 17 19 20 22 28 19 13 16 38 41 29 25 27 21 23 22 18 16 14 15 1 7 7 9 13 19 20 18 16 14 15 18 13 17 15 13 11 14 15 10 11 12 14 13
12 14 15 15 17 16 16 18 18 17 20 32 32 30 26 25 21 22 22 14 15 13 11 12 5 6 11 21 21 19 16 16 16 17 19 14 17 13 16 11 10 9 7 14 14 11 13
12 13 14 14 15 16 15 13 12 12 18 24 28 37 27 26 23 19 16 17 19 15 15 14 12 12 17 18 18 17 17 18 15 17 14 14 15 13 13 16 15 11 6 7 8 5 5
13 14 15 16 17 18 14 9 5 7 12 24 32 32 21 20 21 21 20 20 15 18 13 17 20 16 17 19 20 22 20 16 14 17 13 12 11 12 16 13 10 6 3 5 15 11 7
12 14 17 18 19 19 15 11 5 2 4 22 26 29 25 15 18 22 27 21 21 14 15 16 19 19 18 17 21 22 20 16 15 15 15 15 7 5 6 10 11 6 8 11 7 10 12
13 13 14 17 18 17 15 13 8 6 9 20 19 23 25 28 23 23 21 20 19 21 17 15 16 16 17 17 16 16 18 18 16 16 14 11 6 7 7 8 8 9 12 15 14 17 15
14 14 14 15 17 15 12 9 8 10 12 23 24 28 27 25 22 23 20 20 22 18 14 14 19 14 11 12 11 15 16 9 11 9 9 10 10 12 12 12 14 14 16 16 17 16 15
13 14 14 13 15 15 12 13 14 16 18 25 26 24 25 27 24 25 20 19 19 19 15 12 17 24 21 16 14 15 15 15 14 13 12 13 15 15 16 12 14 13 10 11 10 11 12
9 12 12 12 12 11 13 19 24 21 18 24 25 25 28 30 27 26 22 18 16 13 21 14 14 23 20 14 13 16 15 14 12 11 10 15 15 15 16 14 18 14 13 13 13 13 12
7 8 9 9 9 10 21 26 23 19 17 25 23 23 28 34 33 31 28 26 27 23 22 21 18 18 13 14 16 16 15 15 13 12 11 12 13 14 15 14 16 14 13 12 12 13 12
5 3 4 6 6 18 22 22 18 15 16 23 23 20 25 30 29 26 26 26 25 23 21 20 17 15 14 15 15 15 15 14 13 13 13 13 13 13 12 13 13 13 14 13 12 11 11
9 6 3 2 1 15 15 13 12 13 17 24 24 19 23 28 25 23 24 24 20 19 21 19 17 15 14 13 14 15 15 15 13 12 11 12 13 13 12 12 12 13 13 13 10 10 13
14 12 9 6 4 13 16 13 7 11 18 22 22 17 22 24 24 21 20 22 20 18 19 19 16 15 14 15 14 14 14 13 12 13 12 12 11 12 12 12 11 14 13 11 12 12 13
19 17 14 12 9 13 18 10 5 2 5 17 21 17 17 23 23 20 20 19 18 18 17 18 16 15 14 14 14 13 13 13 12 12 12 11 13 12 12 11 11 12 12 12 12 13 12
Wind_Direction
341 339 336 334 332 329 327 322 321 319 316 317 317 315 314 313 309 303 297 293 284 281 294 300 307 314 315 308 308 340 340 347 345 338 334 332 326 319 302 302 296 286 286 286 286 285 282
340 338 335 334 332 329 327 324 322 320 318 315 315 315 313 311 309 305 294 292 262 279 292 299 307 314 307 299 329 340 334 331 331 336 334 335 330 322 310 302 297 294 290 288 289 286 286
341 338 336 335 334 330 327 325 323 320 318 316 316 314 313 311 310 306 297 288 262 280 290 294 305 309 300 302 327 335 330 326 330 328 327 332 329 319 317 304 309 302 292 292 289 286 281
343 341 339 334 333 331 327 324 324 323 320 318 317 316 314 313 311 304 297 263 274 288 294 295 300 305 297 320 325 321 326 329 331 330 328 326 327 318 311 309 299 296 295 291 296 291 285
349 346 342 337 332 332 329 326 326 327 326 323 321 321 319 315 315 315 305 278 281 305 301 304 303 298 299 330 313 324 329 324 334 332 333 331 328 315 311 302 301 299 292 292 296 300 293
350 346 341 339 335 335 335 331 329 328 327 325 322 320 320 316 315 314 312 300 314 312 302 309 310 300 298 307 333 339 342 339 333 333 331 331 327 316 310 299 293 300 298 299 300 311 297
347 345 343 342 340 339 336 332 330 328 327 326 322 319 317 311 308 323 305 302 295 290 270 281 296 302 326 334 345 335 356 346 347 342 330 344 327 312 312 301 302 302 300 300 305 305 307
346 347 346 345 343 341 338 335 329 331 326 324 323 317 313 303 300 291 282 279 283 286 281 271 293 300 315 327 325 342 8 357 4 348 11 357 333 341 345 316 311 308 304 304 304 306 303
347 348 349 347 348 344 334 333 301 335 330 327 323 316 298 289 290 278 271 268 277 276 286 281 278 289 307 317 327 352 16 15 17 21 24 10 16 91 109 196 284 222 236 247 296 325 153
348 347 351 354 351 335 327 332 353 326 274 351 357 295 269 284 276 266 248 274 263 253 269 267 271 290 308 326 337 21 15 22 23 30 25 70 210 203 204 209 203 210 200 193 190 135 352
349 352 354 359 0 313 296 289 289 285 270 248 201 185 241 280 268 260 255 271 272 254 247 263 269 327 332 327 24 9 20 287 9 250 209 152 211 203 207 195 181 176 166 136 141 149 142
358 1 353 319 320 307 300 296 284 280 266 230 122 175 225 243 233 242 247 243 246 237 239 254 271 269 313 347 2 23 18 237 208 220 186 202 181 216 204 210 179 166 156 151 151 151 146
356 339 337 341 340 325 317 299 295 273 262 249 216 174 190 217 220 226 229 211 208 221 235 237 239 267 17 15 14 26 302 221 241 212 202 148 177 198 197 190 176 172 176 152 146 170 171
7 8 3 353 346 342 330 327 315 275 251 260 189 172 184 203 216 194 198 206 202 218 226 226 217 44 333 41 18 35 212 230 189 181 209 195 187 190 172 175 207 195 170 164 201 176 178
11 8 358 0 4 1 6 39 20 32 317 234 154 169 188 188 196 189 181 175 200 200 205 212 113 342 19 40 39 203 205 202 178 170 177 197 173 188 162 177 203 189 184 165 167 141 175
7 5 5 11 6 15 41 45 62 57 48 71 122 159 172 179 190 184 183 184 196 208 208 118 274 307 49 71 195 193 196 202 196 174 164 190 165 160 172 175 171 167 183 168 185 168 174
23 18 13 12 14 20 34 37 57 74 104 120 137 144 163 174 179 180 176 186 191 207 212 218 306 9 201 182 189 187 196 189 176 180 165 191 157 162 162 178 173 171 176 159 163 179 172
25 22 21 19 20 38 44 41 61 73 117 125 132 127 156 166 161 181 186 184 178 182 177 183 184 177 175 179 180 186 184 173 184 176 185 184 162 167 167 155 161 167 189 194 199 225 219
33 32 29 28 33 44 52 35 52 96 131 135 126 131 161 173 157 163 166 162 168 170 176 165 163 169 176 175 164 158 162 169 193 169 194 197 186 187 171 174 169 191 309 186 152 176 311
31 29 35 30 37 45 54 58 76 275 189 140 136 129 151 169 167 156 150 157 159 170 159 159 158 165 166 168 160 158 157 168 172 176 178 171 213 254 244 211 193 268 327 344 332 335 353
36 24 28 32 39 44 52 64 93 150 161 142 156 154 149 147 149 153 156 153 154 156 160 166 161 165 168 169 165 168 164 160 160 168 180 197 276 286 300 271 293 300 330 340 345 351 0
38 28 26 31 39 44 54 72 107 140 148 139 141 144 153 149 154 154 156 145 147 154 159 155 148 155 155 151 162 165 168 199 198 234 242 247 294 303 322 325 356 342 335 342 344 340 2
40 33 30 30 39 44 63 87 100 128 143 131 143 152 150 146 148 150 150 153 155 162 164 163 158 146 149 154 158 157 150 151 163 171 167 165 158 164 160 203 188 185 228 273 242 261 228
41 36 35 33 36 48 79 95 98 112 128 141 145 145 144 140 147 149 155 157 157 159 156 166 165 146 157 182 186 157 154 152 158 159 165 152 153 158 153 162 142 168 161 168 173 177 192
51 38 31 31 31 70 97 103 104 108 124 139 148 147 137 132 134 137 139 140 141 141 144 144 154 163 183 177 157 156 156 156 153 152 156 157 160 157 155 153 158 168 172 178 173 168 182
284 323 20 24 34 103 106 108 109 112 124 138 146 151 146 137 142 150 145 143 140 140 144 149 159 169 174 160 159 154 151 157 156 160 154 163 158 160 169 158 159 167 141 141 148 165 117
265 266 282 331 47 126 127 117 114 119 128 134 137 147 147 138 150 154 149 150 156 151 147 153 159 163 163 161 152 149 150 150 157 162 164 159 157 164 168 165 157 123 121 111 150 132 72
268 267 268 269 259 141 135 130 111 125 134 134 137 149 147 140 148 159 161 160 161 160 152 155 160 156 157 151 153 152 156 154 161 151 157 159 162 157 155 163 161 105 109 128 90 70 48
283 274 275 277 269 171 142 165 163 138 155 148 136 152 156 137 146 158 159 168 172 170 162 160 157 160 161 158 156 158 161 159 166 159 149 155 142 135 135 136 121 114 85 80 63 43 41